Location: Kaarina
(60.4167°N, 22.4167°E)
Time: 06:00:20
(UTC+03:00)

Cosmos 1937 Rocket - Pass Details

Date: 24 August 2019
Orbit: 746 x 781 km, 74.0° (Epoch: 15 September)

Event Time Altitude Azimuth Distance (km) Brightness Sun altitude
Rises 22:09:21 0° 186° (S) 3,254 6.4 -8.1°
Reaches altitude 10° 22:11:49 10° 179° (S) 2,332 5.6 -8.3°
Maximum altitude 22:16:48 44° 109° (ESE) 1,084 3.9 -8.8°
Drops below altitude 10° 22:21:50 10° 39° (NE) 2,349 6.1 -9.2°
Sets 22:24:19 0° 34° (NNE) 3,279 6.9 -9.4°
